Regional Weather Roundup
Issued by NWS Pendleton, OR

Home | Current Version | Previous Version | Text Only | Print | Product List | Glossary On
Versions: 1 2 3 4 5 6 7 8 9 10 11 12 13 14 15 16 17 18 19 20 21 22 23 24 25 26 27 28 29 30 31 32 33 34 35 36 37 38 39 40 41 42 43 44 45 46 47 48 49 50
000
ASUS46 KPDT 051925
RWRPDT
PENDLETON REGIONAL WEATHER ROUNDUP
NATIONAL WEATHER SERVICE PENDLETON OREGON
1100 AM PST THU MAR 5 2015

NOTE: FAIR INDICATES FEW OR NO CLOUDS BELOW 12,000 FEET WITH NO
SIGNIFICANT WEATHER AND/OR OBSTRUCTIONS TO VISIBILITY.

# INDICATES UNOFFICIAL STATION AND DATA

WAZ520-052010-
EAST SLOPES OF WASHINGTON CASCADES

CITY            SKY/WX      TMP DP  RH  WIND    PRES   REMARKS
#BUMPING DAM    N/A         38  N/A N/A N2      N/A
#CLE ELUM HS    N/A         47  28  47  CALM    30.22F
#CLE ELUM LAKE  N/A         48  28  46  CALM    30.31F
#CLIFFDEL 2NW   N/A         42  24  48  CALM    N/A
#GLENWOOD       N/A         41  32  70  CALM    30.37F
#MANASTASH CYN  N/A         46  26  45  CALM    30.22F
#NELSON         N/A         43  32  65  CALM    30.37F
#NELSON 3SW     N/A         44  31  60  CALM    30.57S
#NILE           N/A         46  27  47  S2      29.59F
#RONALD 2NW     N/A         43  30  60  SW1     30.11F
#SNOWDEN        N/A         45  15  29  NW3     N/A
#TEANAWAY 4NE   N/A         40  29  64  CALM    N/A
#TROUT LAKE 1NE N/A         44  29  55  CALM    30.35F
$$

WAZ521-052010-
SIMCOE HIGHLANDS

CITY            SKY/WX      TMP DP  RH  WIND    PRES   REMARKS
#BICKLETON HS   N/A         48  22  35  SW5     N/A
#CENTERVILLE 4W N/A         46  37  71  CALM    30.04S
#CENTERVILLE 1SWN/A         42  33  70  CALM    30.31F
#GOLDENDALE 1NE N/A         41  19  41  S3      N/A
#GOLDENDALE 5WNWN/A         46  31  56  W1      30.31F
#GOODNOE HILLS  N/A         49  31  50  NW12    N/A    WCI 44
#LYLE 6NE       N/A         43  32  65  CALM    30.32F
$$

WAZ026-052010-
KITTITAS VALLEY

CITY            SKY/WX      TMP DP  RH  WIND    PRES   REMARKS
ELLENSBURG AP   MOCLDY      45  27  49  S3      30.30F
#ELLENSBURG CWU N/A         44  28  53  CALM    30.30F
#ELLENSBURG 3NE N/A         43  30  60  CALM    30.27F
#ELLENSBURG 1E  N/A         44  30  58  CALM    N/A
#KITTITAS 4N    N/A         48  33  56  W1      28.60F
#KITTITAS 3S    N/A         40  31  70  CALM    30.35F
#THORP 6N       N/A         43  29  57  NW1     30.37S
$$

WAZ027-052010-
YAKIMA VALLEY

CITY            SKY/WX      TMP DP  RH  WIND    PRES   REMARKS
SUNNYSIDE AP    PTCLDY      45  27  49  SE3     30.34S
YAKIMA AIRPORT  MOCLDY      50  28  42  CALM    30.33S
YAKIMA-VAGABOND MOCLDY      43  28  55  W1      30.31S
#DONALD 2NE     N/A         55  21  26  CALM    29.17S
#MABTON         N/A         45  31  58  CALM    30.35R
#NACHES 2SW     N/A         47  30  51  NE1     30.30S
#OUTLOOK DOT    N/A         N/A N/A N/A S1      N/A
#SELAH 8E       N/A         49  26  40  W6      N/A
#TERRACE HTS    N/A         50  33  52  CALM    30.33F
#WAPATO 4NE     N/A         55  21  26  CALM    29.17S
#WEST VALLEY    N/A         45  31  58  CALM    30.35S
#W YAKIMA       N/A         48  31  51  S2      30.36F
#WHITE SWAN 5E  N/A         47  30  51  CALM    30.37S
#WILEY CITY 3W  N/A         50  31  48  CALM    30.33S
$$

WAZ028-052010-
LOWER COLUMBIA BASIN...WASHINGTON

CITY            SKY/WX      TMP DP  RH  WIND    PRES   REMARKS
HANFORD         CLOUDY      47  21  35  W3      30.36R
PASCO           MOCLDY      45  24  43  N3      30.38R
PROSSER AWOS    N/A         48  25  40  E3      30.38S
RICHLAND AWOS   MOCLDY      45  23  41  CALM    30.37S
#BASIN CITY 5SW N/A         48  26  42  NW2     30.36S
#BENTON CITY    N/A         44  24  45  E5      30.28S
#CONNELL 5N     N/A         49  23  36  CALM    30.37S
#CONNELL 5NW    N/A         46  25  43  CALM    30.34S
#ELTOPIA        N/A         50  27  41  CALM    30.34S
#ELTOPIA 6NW    N/A         47  25  42  N2      29.30S
#KAHLOTUS       N/A         44  23  43  SW2     30.37S
#KENNEWICK 3S   N/A         44  27  51  CALM    30.39R
#PASCO-BROADMOORN/A         47  22  37  S2      30.29S
#PATERSON       N/A         42  30  62  S2      30.36S
#PROSSER        N/A         46  25  43  CALM    30.36S
#SAGEMOOR 2W    N/A         47  25  42  CALM    30.22S
#TOUCHET 2S     N/A         46  27  47  E2      30.36F
#WEST PASCO     N/A         45  27  49  N1      30.39R
$$

WAZ029-052010-
FOOTHILLS OF THE BLUES...WASHINGTON

CITY            SKY/WX      TMP DP  RH  WIND    PRES   REMARKS
WALLA WALLA AP  PTCLDY      51  20  29  N3      30.33S
#DAYTON SCHOOL  N/A         52  16  24  S2      30.32S
#LOWDEN 2SE     N/A         47  28  47  CALM    30.32S
#PLEASANT VIEW 1N/A         46  25  43  CALM    30.41R
#PRESCOTT       N/A         51  25  36  CALM    30.36F
#SUDBURY        N/A         50  N/A N/A CALM    N/A
#WHITMAN COLLEGEN/A         49  23  36  N1      30.40S
#WAITSBURG 5S   N/A         49  22  34  SW3     30.45R
#WAITSBURG 8N   N/A         54  12  18  S2      30.18S
#WALLA WALLA 5E N/A         53  26  35  W1      N/A
#WALLA WALLA U  N/A         50  28  42  CALM    30.36F
#WHITMAN MISSIONN/A         47  28  47  CALM    30.38F
$$

WAZ030-052010-
BLUE MOUNTAINS...WASHINGTON

CITY            SKY/WX      TMP DP  RH  WIND    PRES   REMARKS
#DIXIE 5SE      N/A         48  16  27  CALM    30.23R
#SKI BLUEWOOD   N/A         46  15  28  S3      30.26R
$$

ORZ009-041-WAZ024-052010-
COLUMBIA RIVER GORGE

CITY            SKY/WX      TMP DP  RH  WIND    PRES   REMARKS
HOOD RIVER AP   PTCLDY      45  30  55  CALM    30.35F
THE DALLES AP   MOCLDY      45  31  58  CALM    30.36F
#ARLINGTON AIRPON/A         45  33  63  W5      30.01S
#ARLINGTON HS   N/A         48  34  58  SE3     30.27S
#CELILO DOT     N/A         41  30  65  CALM    N/A
#MOSIER 1S      N/A         44  25  47  CALM    30.32S
#MURDOCK        N/A         44  35  70  NW1     30.38F
#RUFUS DOT      N/A         N/A N/A N/A CALM    N/A

$$

ORZ510-052010-
NORTH CENTRAL OREGON

CITY            SKY/WX      TMP DP  RH  WIND    PRES   REMARKS
#CHENOWITH 1W   N/A         45  30  55  W7      N/A
#COW CYN RST AREN/A         45  18  33  SW6     N/A
#DUFUR 9E       N/A         44  31  60  W2      30.39S
#GRASS VALLEY 1SN/A         49  27  42  SW7     30.37S
#KENT DOT       N/A         51  19  28  SW8     N/A
#MAUPIN SCHOOL  N/A         45  27  49  CALM    30.35S
#MORO SCHOOL    N/A         50  28  42  SW7     30.31S
#SHANIKO 5WSW   N/A         46  16  30  S10     N/A
#SHANIKO 4NW    N/A         48  19  31  SW2     30.29R
#TYGH VALLEY 2NEN/A         44  30  58  CALM    30.36F
#WAPANITIA AIRPON/A         45  28  51  E3      30.37F
#WASCO DOT      N/A         48  29  47  SW3     N/A
#WASCO 5NE      N/A         46  33  60  CALM    30.36S
$$

ORZ511-052010-
CENTRAL OREGON

CITY            SKY/WX      TMP DP  RH  WIND    PRES   REMARKS
BEND AIRPORT    PTCLDY      50  18  28  CALM    30.31S
MADRAS AIRPORT  PTCLDY      50  25  37  NE5     30.32F
PRINEVILLE AP   PTCLDY      52  21  29  VRB5    30.31F
REDMOND AIRPORT PTCLDY      53  20  27  SE7     30.30F
#BEND 6E        N/A         51  18  27  CALM    30.34F
#BEND 1SW       N/A         51  24  34  W1      N/A
#BEND-AWBREY    N/A         52  26  36  SW3     30.35S
#BEND-KIM LN    N/A         52  26  36  CALM    30.28F
#CROOKED RVR RANN/A         53  25  33  S2      30.35F
#CULVER         N/A         53  22  29  CALM    30.26F
#LAKE BILLY CHINN/A         52  -7   8  S3      30.34F
#POWELL BUTTE   N/A         60  29  31  CALM    29.92S
#PRINEVILLE 3N  N/A         52  28  39  W2      30.35F
#WARM SPRINGS   N/A         46  29  51  CALM    30.29F

$$


ORZ509-052010-
EAST SLOPES OF OREGON CASCADES

CITY            SKY/WX      TMP DP  RH  WIND    PRES   REMARKS
#BLUE BOX PASS  N/A         50  -3  11  SW1     N/A
#CAMP SHERMAN   N/A         56  26  31  CALM    30.39F
#LA PINE 4NW    N/A         48  22  35  CALM    30.47F
#MT BACHELOR-MIDN/A         39  -7  13  S16     N/A    WCI 30
#SISTERS AIRPOR N/A         51  30  44  CALM    30.17S
#SISTERS ODOT   N/A         48  N/A N/A CALM    N/A
#SISTERS 3N     N/A         52  25  35  S3      30.31S
#SUNRIVER       N/A         50  22  33  S2      30.31F
#TUMALO 3W      N/A         51  21  30  E1      30.22F
#WANOGA BUTTE D N/A         47   7  19  W6      N/A

$$

ORZ044-052010-
LOWER COLUMBIA BASIN...OREGON

CITY            SKY/WX      TMP DP  RH  WIND    PRES   REMARKS
HERMISTON       PTCLDY      47  27  45  CALM    30.34F
#BOARDMAN 8SW   N/A         46  34  63  CALM    30.35S
#IONE SCHOOL    N/A         51  26  37  CALM    30.29S
#IRRIGON 4NW    N/A         43  30  60  NE3     N/A
#UMATILLA SCHOOLN/A         45  32  60  CALM    30.34R
#UMATILLA       N/A         46  28  49  CALM    30.33S
$$

ORZ507-052010-
NORTHERN FOOTHILLS OF THE BLUES

CITY            SKY/WX      TMP DP  RH  WIND    PRES   REMARKS
PENDLETON AIRPT PTCLDY      50  21  32  N6      30.31S
#ADAMS 3WNW     N/A         52  26  36  CALM    30.36F
#ATHENA         N/A         53  21  28  SW2     30.37R
#CAYUSE         N/A         51  25  36  W1      30.34S
#HELIX SCHOOL   N/A         51  23  33  SW2     30.36S
#HELIX 3N       N/A         50  21  32  N3      30.26S
#HOLDMAN 5SE    N/A         51  29  42  E2      30.31S
#HOLDMAN 6E     N/A         49  23  36  E3      30.16S
#M-F FERNDALE   N/A         50  25  37  CALM    30.31F
#M-F GROVE ELEM N/A         47  19  32  CALM    30.30S
#M-FREEWATER 5SEN/A         50  26  39  CALM    30.30S
#PENDLETON DNTN N/A         51  29  42  E1      30.31S
#PDT AQUATIC CTRN/A         51  31  46  S2      30.31S
#PENDLETON 5NE  N/A         52  28  39  CALM    30.26F
#PDT SUNRIDGE   N/A         49  26  40  W1      30.33F
#PENDLETON 7NW  N/A         51  29  42  CALM    28.42
#PILOT ROCK     N/A         51  23  33  N1      30.31R
#TUTUILLA       N/A         50  23  34  N1      30.35S
#UMAPINE 2E     N/A         49  27  42  CALM    30.31F
#WESTON SCHOOL  N/A         52  18  26  NE5     30.29S

$$

ORZ508-052010-
SOUTHERN FOOTHILLS OF THE BLUES

CITY            SKY/WX      TMP DP  RH  WIND    PRES   REMARKS
LEXINGTON       PTCLDY      54  25  32  CALM    30.33R
#AJAX           N/A         48  21  34  S3      30.22S
#CONDON SCHOOL  N/A         48  25  40  CALM    30.23S
#CONDON 5W      N/A         47  21  35  S9      30.26R
#FOSSIL SCHOOL  N/A         55  23  29  S3      30.24S
#HEPPNER EOC    N/A         52  24  33  N2      30.29S
#HEPPNER 4NE    N/A         51  21  30  NW5     30.33S
#LEXINGTON 2SE  N/A         55  23  29  N8      30.27S
#MIKKALO        N/A         49  24  37  N5      30.30R
#OLEX 4N        N/A         49  31  50  W6      30.29S
#RUGGS 5NE      N/A         54  24  31  W6      30.46S
#RUGGS 2SW      N/A         55  18  23  W7      30.35S

$$

ORZ502-503-052010-
BLUE MOUNTAINS

CITY            SKY/WX      TMP DP  RH  WIND    PRES   REMARKS
MEACHAM         PTCLDY      51  16  24  CALM    30.29S
#BATTLE MTN DOT N/A         41  25  53  S6      N/A
#HEPPNER 15SE   N/A         49  20  31  CALM    30.21R
#LADD CYN SMT   N/A         40  13  33  E23     N/A    WCI 30
#LADD CREEK ODOTN/A         43  19  38  S8      N/A
#LONG CREEK HS  N/A         44  29  55  CALM    30.26F
#N POWDER DOT   N/A         40  19  42  SW7     N/A
#PIKES PEAK     N/A         45  18  33  SW9     27.99S
#TROY SCHOOL    N/A         46  23  40  S1      30.25F
#UKIAH          N/A         37  26  64  CALM    30.51F
#WESTON 4E      N/A         50  16  25  S7      30.30S
$$

ORZ505-052010-
JOHN DAY BASIN

CITY            SKY/WX      TMP DP  RH  WIND    PRES   REMARKS
JOHN DAY        PTCLDY      49  20  31  CALM    30.33F
#JOHN DAY KJDY  N/A         45  41  86  E2      30.29F
#DAYVILLE SCHOOLN/A         43  22  43  E1      30.30F
#MONUMENT HS    N/A         42  22  45  CALM    30.35F
#MT. VERNON 5SE N/A         46  26  45  NW1     30.28F
#SPRAY SCHOOL   N/A         44  N/A N/A CALM    N/A
#WINLOCK        N/A         46  18  32  N6      30.38F
$$

ORZ506-052010-
OCHOCO AND JOHN DAY HIGHLANDS

CITY            SKY/WX      TMP DP  RH  WIND    PRES   REMARKS
#BUCK CREEK DOT N/A         48  48  100 SE9     N/A
#HORSE RIDGE DO N/A         54  15  21  E2      N/A
#KEYES SMT DOT  N/A         43  23  45  CALM    N/A
#PAULINA SCHOOL N/A         20  16  84  E3      30.31S
#PINE MTN OBS   N/A         46  10  23  S2      N/A
#PRAIRIE CITY   N/A         46  18  32  CALM    30.37F
#SENECA         N/A         29  N/A N/A SE1     N/A
#SENECA 9NW     N/A         37  20  50  CALM    30.53F
$$

ORZ049-052010-
GRANDE RONDE VALLEY

CITY            SKY/WX      TMP DP  RH  WIND    PRES   REMARKS
LA GRANDE       SUNNY       48  16  27  S22G30  30.32F WCI 41
#COVE           N/A         46  24  42  N3      30.32F
#COVE SCHOOL    N/A         46  21  37  N1      30.28F
#ELGIN 3N       N/A         49   8  18  S12     30.28F WCI 44
#ELGIN 1E       N/A         47  22  37  CALM    N/A
#IMBLER SCHOOL  N/A         47  20  34  SE6     30.27S
#ISLAND CITY 4N N/A         48  38  68  CALM    30.37S
#LADD CYN DOT   N/A         43  16  33  SE18G30 N/A    WCI 35
#LA GRANDE ELEM N/A         50  20  30  CALM    30.31F
#UNION 1S       N/A         45  19  35  S16G24  30.32F WCI 38
$$

ORZ050-052010-
WALLOWA COUNTY

CITY            SKY/WX      TMP DP  RH  WIND    PRES   REMARKS
JOSEPH AIRPORT  SUNNY       45  18  33  N5      30.31S
#ENTERPRISE HS  N/A         43  23  45  NW2     30.28F
#IMNAHA SCHOOL  N/A         55  20  25  S7      30.29F
#IMNAHA 10S     N/A         51  22  32  S1      30.28F
#JOSEPH 3N      N/A         41  21  44  W5      30.29S
#JOSEPH 3W      N/A         41  13  31  N2      30.11R
#LOSTINE        N/A         38  19  46  NW1     30.26S
#MT HOWARD 8000 N/A         38  -3  17  SW6     30.26R
#PROMISE 1S     N/A         42  19  39  N2      30.51S
#SHEEP RDG 7000 N/A         37   4  24  CALM    30.40F
#WALLOWA SCHOOL N/A         40  19  42  CALM    31.46F



$$



USA.gov is the U.S. government's official web portal to all federal, state and local government web resources and services.